Location: Famechon
(49.7599°N, 2.0615°E)
Time: 08:42:28
(UTC+00:00)

SL-16 R/B - Pass Details

Date: 03 February 2023
Orbit: 842 x 846 km, 71.0° (Epoch: 23 March)

Event Time Altitude Azimuth Distance (km) Brightness Sun altitude
Rises 20:16:26 0° 262° (W) 3,399 6.2 -33.4°
Reaches altitude 10° 20:19:40 10° 281° (W) 2,468 5.4 -33.9°
Maximum altitude 20:23:34 19° 324° (NW) 1,933 4.5 -34.5°
Enters shadow 20:26:17 14° 358° (N) 2,215 4.5 -34.9°
